Location: Tel Aviv
(32.0670°N, 34.7670°E)
Time: 10:39:16
(UTC+03:00)

Explorer 11/Cluster Stage 4 - Pass Details

Date: 12 September 2024
Orbit: 464 x 1208 km, 28.8° (Epoch: 06 October)

Event Time Altitude Azimuth Distance (km) Brightness Sun altitude
Rises 14:50:37 0° 268° (W) 4,015 10.7 47.9°
Reaches altitude 10° 14:54:48 10° 249° (WSW) 2,949 10.5 47.2°
Maximum altitude 14:58:57 16° 214° (SW) 2,392 10.1 46.4°
Drops below altitude 10° 15:02:45 10° 178° (S) 2,661 9.7 45.7°
Sets 15:06:15 0° 157° (SSE) 3,443 10.0 45.1°
